Location: Dannhausen
(51.8650°N, 10.1026°E)
Time: 22:43:05
(UTC+00:00)

Cosmos 1727 Rocket - Pass Details

Date: 09 April 2020
Orbit: 960 x 997 km, 82.9° (Epoch: 27 May)

Event Time Altitude Azimuth Distance (km) Brightness Sun altitude
Exits shadow 22:05:53 62° 97° (E) 1,108 4.0 -28.0°
Maximum altitude 22:05:56 62° 94° (E) 1,107 4.1 -28.0°
Drops below altitude 10° 22:12:12 10° 15° (NNE) 2,771 7.0 -28.3°
Sets 22:14:46 0° 13° (NNE) 3,727 7.9 -28.5°
